Location: Knowlton
(51.2333°N, 1.2667°E)
Time: 04:18:02
(UTC+00:00)

Cosmos 2227 Rocket - Pass Details

Date: 18 April 2021
Orbit: 840 x 844 km, 71.0° (Epoch: 06 May)

Event Time Altitude Azimuth Distance (km) Brightness Sun altitude
Exits shadow 21:38:43 24° 199° (SSW) 1,690 3.4 -21.1°
Maximum altitude 21:42:16 77° 117° (ESE) 870 2.1 -21.4°
Drops below altitude 10° 21:47:56 10° 32° (NNE) 2,473 4.9 -21.9°
Sets 21:50:23 0° 31° (NNE) 3,411 5.7 -22.1°
